Stündliche Wetter Ceglarnia

Heute, 20 Oktober, Dienstag

Zeit Temperatur Niederschläge Wind Luftdruck Luftfeuchtigkeit
00:00 +5°C° 0 mm 2 m/S 753 mmHg 91%
01:00 +5°C° 0 mm 2 m/S 753 mmHg 94%
02:00 +5°C° 0 mm 2 m/S 753 mmHg 94%
03:00 +5°C° 0 mm 2 m/S 753 mmHg 93%
04:00 +5°C° 0 mm 2 m/S 753 mmHg 93%
05:00 +5°C° 0 mm 2 m/S 753 mmHg 92%
06:00 +5°C° 0 mm 2 m/S 753 mmHg 90%
07:00 +4°C° 0 mm 3 m/S 753 mmHg 92%
08:00 +5°C° 0 mm 3 m/S 753 mmHg 87%
09:00 +7°C° 0 mm 3 m/S 753 mmHg 83%
10:00 +8°C° 0 mm 3 m/S 753 mmHg 78%
11:00 +8°C° 0 mm 4 m/S 752 mmHg 75%
12:00 +8°C° 0 mm 5 m/S 752 mmHg 71%
13:00 +9°C° 0 mm 5 m/S 751 mmHg 68%
14:00 +9°C° 0 mm 5 m/S 751 mmHg 68%
15:00 +9°C° 0 mm 5 m/S 750 mmHg 68%
16:00 +9°C° 0 mm 5 m/S 749 mmHg 69%
17:00 +8°C° 0 mm 5 m/S 749 mmHg 71%
18:00 +8°C° 0 mm 4 m/S 748 mmHg 73%
19:00 +8°C° 0 mm 4 m/S 747 mmHg 75%
20:00 +8°C° 0 mm 4 m/S 747 mmHg 76%
21:00 +8°C° 0 mm 4 m/S 747 mmHg 77%
22:00 +8°C° 0 mm 4 m/S 746 mmHg 78%
23:00 +8°C° 0.3 mm 4 m/S 746 mmHg 81%

Morgen, 21 Oktober, Mittwoch

Zeit Temperatur Niederschläge Wind Luftdruck Luftfeuchtigkeit
00:00 +8°C° 0.3 mm 4 m/S 746 mmHg 85%
01:00 +9°C° 0.3 mm 3 m/S 746 mmHg 88%
02:00 +9°C° 0.2 mm 3 m/S 746 mmHg 89%
03:00 +8°C° 0.2 mm 4 m/S 745 mmHg 90%
04:00 +8°C° 0.2 mm 4 m/S 745 mmHg 91%
05:00 +9°C° 0 mm 3 m/S 745 mmHg 93%
06:00 +9°C° 0 mm 3 m/S 746 mmHg 94%
07:00 +10°C° 0 mm 3 m/S 746 mmHg 95%
08:00 +10°C° 0 mm 3 m/S 746 mmHg 92%
09:00 +11°C° 0 mm 3 m/S 746 mmHg 90%
10:00 +12°C° 0 mm 4 m/S 746 mmHg 87%
11:00 +12°C° 0 mm 4 m/S 746 mmHg 87%
12:00 +12°C° 0 mm 4 m/S 746 mmHg 87%
13:00 +12°C° 0 mm 4 m/S 746 mmHg 86%
14:00 +12°C° 0.3 mm 4 m/S 745 mmHg 87%
15:00 +11°C° 0.3 mm 4 m/S 745 mmHg 89%
16:00 +11°C° 0.3 mm 4 m/S 745 mmHg 90%
17:00 +11°C° 0.1 mm 4 m/S 745 mmHg 85%
18:00 +10°C° 0.1 mm 5 m/S 744 mmHg 81%
19:00 +10°C° 0.1 mm 5 m/S 744 mmHg 76%
20:00 +10°C° 0 mm 5 m/S 744 mmHg 75%
21:00 +12°C° 0 mm 5 m/S 744 mmHg 73%
22:00 +12°C° 0 mm 5 m/S 744 mmHg 71%
23:00 +11°C° 0 mm 6 m/S 744 mmHg 71%

übermorgen, 22 Oktober, Donnerstag

Zeit Temperatur Niederschläge Wind Luftdruck Luftfeuchtigkeit
00:00 +11°C° 0 mm 6 m/S 744 mmHg 71%
01:00 +13°C° 0 mm 6 m/S 744 mmHg 72%
02:00 +13°C° 0 mm 6 m/S 744 mmHg 75%
03:00 +13°C° 0 mm 6 m/S 744 mmHg 78%
04:00 +12°C° 0 mm 7 m/S 744 mmHg 81%
05:00 +11°C° 0 mm 6 m/S 744 mmHg 84%
06:00 +12°C° 0 mm 5 m/S 745 mmHg 87%
07:00 +12°C° 0 mm 5 m/S 745 mmHg 90%
08:00 +13°C° 0 mm 5 m/S 745 mmHg 85%
09:00 +14°C° 0 mm 5 m/S 746 mmHg 80%
10:00 +15°C° 0 mm 6 m/S 746 mmHg 75%
11:00 +16°C° 0 mm 6 m/S 746 mmHg 72%
12:00 +16°C° 0 mm 6 m/S 746 mmHg 69%
13:00 +17°C° 0 mm 6 m/S 746 mmHg 67%
14:00 +17°C° 0 mm 5 m/S 746 mmHg 69%
15:00 +16°C° 0 mm 5 m/S 746 mmHg 72%
16:00 +17°C° 0 mm 4 m/S 746 mmHg 75%
17:00 +15°C° 0 mm 4 m/S 746 mmHg 76%
18:00 +15°C° 0 mm 5 m/S 746 mmHg 77%
19:00 +15°C° 0 mm 5 m/S 746 mmHg 78%
20:00 +15°C° 0 mm 5 m/S 745 mmHg 78%
21:00 +14°C° 0 mm 5 m/S 745 mmHg 79%
22:00 +14°C° 0 mm 4 m/S 745 mmHg 80%
23:00 +14°C° 0 mm 5 m/S 745 mmHg 82%

23 Oktober, Freitag

Zeit Temperatur Niederschläge Wind Luftdruck Luftfeuchtigkeit
00:00 +14°C° 0 mm 5 m/S 745 mmHg 83%
01:00 +13°C° 0 mm 5 m/S 744 mmHg 85%
02:00 +13°C° 1.6 mm 5 m/S 744 mmHg 87%
03:00 +13°C° 1.6 mm 5 m/S 744 mmHg 89%
04:00 +13°C° 1.6 mm 5 m/S 744 mmHg 91%
05:00 +13°C° 0.4 mm 5 m/S 744 mmHg 90%
06:00 +13°C° 0.4 mm 5 m/S 743 mmHg 89%
07:00 +13°C° 0.4 mm 5 m/S 743 mmHg 88%
08:00 +13°C° 0 mm 6 m/S 744 mmHg 83%
09:00 +14°C° 0 mm 6 m/S 744 mmHg 78%
10:00 +14°C° 0 mm 7 m/S 744 mmHg 72%
11:00 +12°C° 0.1 mm 7 m/S 745 mmHg 72%
12:00 +12°C° 0.1 mm 7 m/S 745 mmHg 73%
13:00 +12°C° 0.1 mm 7 m/S 745 mmHg 73%
14:00 +11°C° 0 mm 6 m/S 745 mmHg 74%
15:00 +12°C° 0 mm 5 m/S 745 mmHg 75%
16:00 +12°C° 0 mm 5 m/S 745 mmHg 76%
17:00 +11°C° 0 mm 4 m/S 745 mmHg 80%
18:00 +10°C° 0 mm 3 m/S 745 mmHg 83%
19:00 +10°C° 0 mm 3 m/S 746 mmHg 86%
20:00 +10°C° 0 mm 3 m/S 746 mmHg 86%
21:00 +10°C° 0 mm 2 m/S 746 mmHg 87%
22:00 +9°C° 0 mm 2 m/S 746 mmHg 87%
23:00 +9°C° 0 mm 2 m/S 746 mmHg 89%

24 Oktober, Samstag

Zeit Temperatur Niederschläge Wind Luftdruck Luftfeuchtigkeit
00:00 +9°C° 0 mm 2 m/S 745 mmHg 91%
01:00 +9°C° 0 mm 2 m/S 745 mmHg 93%
02:00 +9°C° 0 mm 2 m/S 745 mmHg 93%
03:00 +9°C° 0 mm 2 m/S 745 mmHg 94%
04:00 +8°C° 0 mm 2 m/S 744 mmHg 95%
05:00 +8°C° 0.1 mm 2 m/S 744 mmHg 95%
06:00 +9°C° 0.1 mm 3 m/S 744 mmHg 95%
07:00 +9°C° 0.1 mm 3 m/S 744 mmHg 95%
08:00 +8°C° 0.6 mm 4 m/S 744 mmHg 91%
09:00 +8°C° 0.6 mm 4 m/S 744 mmHg 87%
10:00 +8°C° 0.6 mm 5 m/S 744 mmHg 83%
11:00 +9°C° 0.1 mm 5 m/S 745 mmHg 81%
12:00 +9°C° 0.1 mm 6 m/S 745 mmHg 79%
13:00 +9°C° 0.1 mm 6 m/S 745 mmHg 77%
14:00 +9°C° 0.1 mm 6 m/S 745 mmHg 76%
15:00 +9°C° 0.1 mm 6 m/S 746 mmHg 75%
16:00 +9°C° 0.1 mm 6 m/S 746 mmHg 74%
17:00 +8°C° 0 mm 5 m/S 747 mmHg 77%
18:00 +8°C° 0 mm 5 m/S 747 mmHg 80%
19:00 +7°C° 0 mm 4 m/S 748 mmHg 83%
20:00 +7°C° 0 mm 4 m/S 748 mmHg 85%
21:00 +7°C° 0 mm 4 m/S 749 mmHg 86%
22:00 +6°C° 0 mm 4 m/S 749 mmHg 87%
23:00 +6°C° 0 mm 4 m/S 749 mmHg 88%

25 Oktober, Sonntag

Zeit Temperatur Niederschläge Wind Luftdruck Luftfeuchtigkeit
00:00 +7°C° 0 mm 3 m/S 749 mmHg 89%
01:00 +7°C° 0 mm 3 m/S 749 mmHg 90%
02:00 +5°C° 0 mm 3 m/S 750 mmHg 92%
03:00 +5°C° 0 mm 3 m/S 750 mmHg 93%
04:00 +6°C° 0 mm 2 m/S 750 mmHg 95%
05:00 +5°C° 0 mm 2 m/S 750 mmHg 95%
06:00 +5°C° 0 mm 2 m/S 750 mmHg 95%
07:00 +5°C° 0 mm 2 m/S 750 mmHg 95%
08:00 +6°C° 0 mm 2 m/S 751 mmHg 88%
09:00 +8°C° 0 mm 2 m/S 751 mmHg 81%
10:00 +9°C° 0 mm 2 m/S 751 mmHg 75%
11:00 +10°C° 0 mm 2 m/S 751 mmHg 70%
12:00 +11°C° 0 mm 3 m/S 751 mmHg 65%
13:00 +11°C° 0 mm 3 m/S 751 mmHg 61%
14:00 +11°C° 0 mm 3 m/S 751 mmHg 64%
15:00 +10°C° 0 mm 2 m/S 750 mmHg 68%
16:00 +10°C° 0 mm 2 m/S 750 mmHg 71%
17:00 +9°C° 0 mm 2 m/S 750 mmHg 74%
18:00 +8°C° 0 mm 3 m/S 750 mmHg 76%
19:00 +8°C° 0 mm 3 m/S 750 mmHg 78%
20:00 +8°C° 0 mm 3 m/S 750 mmHg 80%
21:00 +7°C° 0 mm 3 m/S 750 mmHg 81%
22:00 +7°C° 0 mm 3 m/S 750 mmHg 82%
23:00 +7°C° 0 mm 3 m/S 750 mmHg 82%

26 Oktober, Montag

Zeit Temperatur Niederschläge Wind Luftdruck Luftfeuchtigkeit
00:00 +6°C° 0 mm 4 m/S 749 mmHg 82%
01:00 +6°C° 0 mm 4 m/S 749 mmHg 82%
02:00 +5°C° 0 mm 4 m/S 749 mmHg 83%
03:00 +5°C° 0 mm 4 m/S 749 mmHg 84%
04:00 +5°C° 0 mm 4 m/S 749 mmHg 84%
05:00 +5°C° 0 mm 4 m/S 748 mmHg 84%
06:00 +5°C° 0 mm 4 m/S 748 mmHg 85%
07:00 +5°C° 0 mm 4 m/S 748 mmHg 85%
08:00 +6°C° 0 mm 4 m/S 748 mmHg 80%
09:00 +7°C° 0 mm 5 m/S 748 mmHg 74%
10:00 +8°C° 0 mm 5 m/S 748 mmHg 69%
11:00 +9°C° 0 mm 5 m/S 748 mmHg 66%
12:00 +10°C° 0 mm 5 m/S 748 mmHg 63%
13:00 +11°C° 0 mm 4 m/S 748 mmHg 60%
14:00 +11°C° 0 mm 4 m/S 747 mmHg 63%
15:00 +10°C° 0 mm 4 m/S 747 mmHg 65%
16:00 +10°C° 0 mm 4 m/S 747 mmHg 67%
17:00 +8°C° 0 mm 4 m/S 747 mmHg 70%
18:00 +8°C° 0 mm 4 m/S 747 mmHg 74%
19:00 +7°C° 0 mm 4 m/S 747 mmHg 77%
20:00 +8°C° 0 mm 3 m/S 747 mmHg 79%
21:00 +8°C° 0 mm 3 m/S 747 mmHg 81%
22:00 +8°C° 0 mm 3 m/S 747 mmHg 83%
23:00 +8°C° 0.1 mm 3 m/S 746 mmHg 85%
Mehr zeigen